Hourly Weather Ordino

Today, 28 September, Monday

Time Temperature Precipitation Wind Pressure Humidity
00:00 +2°C° 0 mm 2 mps 630 mmHg 91%
01:00 +3°C° 0 mm 2 mps 630 mmHg 91%
02:00 +3°C° 0 mm 2 mps 629 mmHg 91%
03:00 +4°C° 0 mm 2 mps 629 mmHg 90%
04:00 +4°C° 0 mm 2 mps 630 mmHg 92%
05:00 +4°C° 0 mm 2 mps 630 mmHg 93%
06:00 +4°C° 0 mm 2 mps 630 mmHg 96%
07:00 +5°C° 0 mm 2 mps 631 mmHg 91%
08:00 +7°C° 0 mm 2 mps 632 mmHg 86%
09:00 +8°C° 0 mm 2 mps 632 mmHg 82%
10:00 +9°C° 0 mm 2 mps 633 mmHg 78%
11:00 +12°C° 0 mm 2 mps 634 mmHg 75%
12:00 +13°C° 0 mm 2 mps 634 mmHg 71%
13:00 +13°C° 0 mm 2 mps 634 mmHg 70%
14:00 +13°C° 0 mm 2 mps 634 mmHg 68%
15:00 +13°C° 0 mm 2 mps 633 mmHg 66%
16:00 +10°C° 0 mm 2 mps 633 mmHg 74%
17:00 +9°C° 0 mm 1 mps 633 mmHg 81%
18:00 +6°C° 0 mm 1 mps 632 mmHg 89%
19:00 +6°C° 0 mm 1 mps 632 mmHg 87%
20:00 +6°C° 0 mm 1 mps 633 mmHg 85%
21:00 +6°C° 0 mm 1 mps 633 mmHg 84%
22:00 +6°C° 0 mm 1 mps 633 mmHg 83%
23:00 +6°C° 0 mm 1 mps 633 mmHg 83%

Tomorrow, 29 September, Tuesday

Time Temperature Precipitation Wind Pressure Humidity
00:00 +6°C° 0 mm 1 mps 633 mmHg 83%
01:00 +6°C° 0 mm 1 mps 633 mmHg 83%
02:00 +6°C° 0 mm 1 mps 633 mmHg 82%
03:00 +6°C° 0 mm 1 mps 633 mmHg 81%
04:00 +6°C° 0 mm 1 mps 633 mmHg 78%
05:00 +6°C° 0 mm 1 mps 633 mmHg 75%
06:00 +6°C° 0 mm 1 mps 633 mmHg 72%
07:00 +8°C° 0 mm 0 mps 634 mmHg 67%
08:00 +10°C° 0 mm 0 mps 635 mmHg 62%
09:00 +13°C° 0 mm 0 mps 636 mmHg 57%
10:00 +15°C° 0 mm 1 mps 636 mmHg 55%
11:00 +16°C° 0 mm 1 mps 637 mmHg 52%
12:00 +17°C° 0 mm 2 mps 637 mmHg 49%
13:00 +17°C° 0 mm 2 mps 636 mmHg 51%
14:00 +16°C° 0 mm 2 mps 636 mmHg 53%
15:00 +16°C° 0 mm 1 mps 635 mmHg 56%
16:00 +14°C° 0 mm 1 mps 635 mmHg 65%
17:00 +12°C° 0 mm 1 mps 634 mmHg 74%
18:00 +8°C° 0 mm 0 mps 633 mmHg 83%
19:00 +9°C° 0 mm 1 mps 633 mmHg 82%
20:00 +9°C° 0 mm 1 mps 633 mmHg 81%
21:00 +8°C° 0 mm 1 mps 633 mmHg 80%
22:00 +8°C° 0 mm 1 mps 633 mmHg 79%
23:00 +8°C° 0 mm 1 mps 633 mmHg 77%

Day after tomorrow, 30 September, Wednesday

Time Temperature Precipitation Wind Pressure Humidity
00:00 +8°C° 0 mm 1 mps 632 mmHg 76%
01:00 +8°C° 0 mm 1 mps 632 mmHg 74%
02:00 +8°C° 0 mm 1 mps 632 mmHg 72%
03:00 +8°C° 0 mm 1 mps 631 mmHg 70%
04:00 +8°C° 0 mm 1 mps 631 mmHg 69%
05:00 +8°C° 0 mm 1 mps 631 mmHg 68%
06:00 +8°C° 0 mm 1 mps 631 mmHg 67%
07:00 +10°C° 0 mm 1 mps 632 mmHg 61%
08:00 +13°C° 0 mm 1 mps 633 mmHg 55%
09:00 +16°C° 0 mm 1 mps 635 mmHg 48%
10:00 +18°C° 0 mm 1 mps 635 mmHg 46%
11:00 +19°C° 0 mm 1 mps 635 mmHg 43%
12:00 +19°C° 0 mm 2 mps 635 mmHg 40%
13:00 +18°C° 0 mm 2 mps 634 mmHg 41%
14:00 +18°C° 0 mm 2 mps 634 mmHg 42%
15:00 +18°C° 0 mm 2 mps 633 mmHg 44%
16:00 +15°C° 0 mm 1 mps 632 mmHg 54%
17:00 +12°C° 0 mm 1 mps 631 mmHg 65%
18:00 +9°C° 0 mm 0 mps 630 mmHg 75%
19:00 +8°C° 0 mm 0 mps 630 mmHg 75%
20:00 +9°C° 0 mm 1 mps 630 mmHg 74%
21:00 +9°C° 0 mm 1 mps 630 mmHg 74%
22:00 +8°C° 0 mm 1 mps 630 mmHg 73%
23:00 +8°C° 0 mm 1 mps 629 mmHg 72%

1 October, Thursday

Time Temperature Precipitation Wind Pressure Humidity
00:00 +8°C° 0 mm 1 mps 629 mmHg 71%
01:00 +8°C° 0 mm 1 mps 629 mmHg 71%
02:00 +8°C° 0 mm 1 mps 628 mmHg 71%
03:00 +8°C° 0 mm 1 mps 628 mmHg 71%
04:00 +8°C° 0 mm 1 mps 628 mmHg 72%
05:00 +7°C° 0 mm 1 mps 628 mmHg 72%
06:00 +7°C° 0 mm 1 mps 627 mmHg 73%
07:00 +9°C° 0 mm 1 mps 628 mmHg 68%
08:00 +12°C° 0 mm 1 mps 629 mmHg 64%
09:00 +14°C° 0 mm 1 mps 630 mmHg 59%
10:00 +14°C° 0 mm 2 mps 630 mmHg 61%
11:00 +14°C° 0 mm 2 mps 630 mmHg 62%
12:00 +14°C° 0 mm 2 mps 630 mmHg 63%
13:00 +14°C° 0 mm 2 mps 629 mmHg 63%
14:00 +14°C° 0 mm 2 mps 629 mmHg 63%
15:00 +14°C° 0 mm 2 mps 628 mmHg 64%
16:00 +13°C° 0 mm 2 mps 628 mmHg 70%
17:00 +12°C° 0 mm 2 mps 627 mmHg 76%
18:00 +9°C° 0 mm 2 mps 626 mmHg 83%
19:00 +9°C° 0 mm 2 mps 626 mmHg 83%
20:00 +9°C° 0 mm 2 mps 626 mmHg 83%
21:00 +9°C° 0 mm 2 mps 626 mmHg 83%
22:00 +8°C° 0 mm 3 mps 625 mmHg 85%
23:00 +8°C° 0 mm 3 mps 624 mmHg 87%

2 October, Friday

Time Temperature Precipitation Wind Pressure Humidity
00:00 +8°C° 0 mm 3 mps 624 mmHg 88%
01:00 +9°C° 0.2 mm 3 mps 623 mmHg 89%
02:00 +9°C° 0.2 mm 3 mps 622 mmHg 90%
03:00 +8°C° 0.2 mm 4 mps 621 mmHg 91%
04:00 +8°C° 0.1 mm 4 mps 620 mmHg 92%
05:00 +8°C° 0.1 mm 4 mps 620 mmHg 92%
06:00 +8°C° 0.1 mm 4 mps 619 mmHg 92%
07:00 +8°C° 0.8 mm 4 mps 619 mmHg 93%
08:00 +9°C° 0.8 mm 3 mps 619 mmHg 93%
09:00 +9°C° 0.8 mm 3 mps 619 mmHg 93%
10:00 +8°C° 2.7 mm 3 mps 619 mmHg 95%
11:00 +7°C° 2.7 mm 2 mps 619 mmHg 96%
12:00 +7°C° 2.7 mm 2 mps 619 mmHg 97%
13:00 +6°C° 2.6 mm 2 mps 619 mmHg 97%
14:00 +6°C° 2.6 mm 2 mps 619 mmHg 97%
15:00 +5°C° 2.6 mm 2 mps 619 mmHg 96%
16:00 +5°C° 1.1 mm 2 mps 619 mmHg 96%
17:00 +5°C° 1.1 mm 1 mps 619 mmHg 97%
18:00 +5°C° 1.1 mm 1 mps 619 mmHg 97%
19:00 +4°C° 1.7 mm 1 mps 619 mmHg 97%
20:00 +3°C° 1.7 mm 1 mps 619 mmHg 97%
21:00 +3°C° 1.7 mm 1 mps 619 mmHg 98%
22:00 +2°C° 1.6 mm 1 mps 619 mmHg 97%
23:00 +2°C° 1.6 mm 1 mps 619 mmHg 96%

3 October, Saturday

Time Temperature Precipitation Wind Pressure Humidity
00:00 +1°C° 1.6 mm 1 mps 619 mmHg 96%
01:00 0°C° 0.1 mm 1 mps 618 mmHg 94%
02:00 -1°C° 0.1 mm 1 mps 618 mmHg 92%
03:00 -1°C° 0.1 mm 1 mps 618 mmHg 91%
04:00 -1°C° 0 mm 1 mps 618 mmHg 90%
05:00 -1°C° 0 mm 1 mps 619 mmHg 89%
06:00 -1°C° 0 mm 1 mps 619 mmHg 89%
07:00 +1°C° 0 mm 1 mps 620 mmHg 87%
08:00 +3°C° 0 mm 1 mps 621 mmHg 85%
09:00 +5°C° 0 mm 1 mps 622 mmHg 83%
10:00 +4°C° 0 mm 2 mps 622 mmHg 80%
11:00 +5°C° 0 mm 2 mps 622 mmHg 76%
12:00 +6°C° 0 mm 2 mps 622 mmHg 73%
13:00 +5°C° 0.2 mm 3 mps 622 mmHg 73%
14:00 +5°C° 0.2 mm 3 mps 622 mmHg 74%
15:00 +5°C° 0.2 mm 3 mps 622 mmHg 74%
16:00 +3°C° 0 mm 3 mps 621 mmHg 79%
17:00 +2°C° 0 mm 3 mps 621 mmHg 83%
18:00 0°C° 0 mm 3 mps 621 mmHg 87%
19:00 0°C° 0 mm 3 mps 621 mmHg 88%
20:00 0°C° 0 mm 3 mps 621 mmHg 89%
21:00 -1°C° 0 mm 3 mps 621 mmHg 89%
22:00 -1°C° 0.2 mm 3 mps 621 mmHg 91%
23:00 -1°C° 0.2 mm 3 mps 621 mmHg 92%
Show more